Home > Weather > Amsterdam Island > Past weeks

Flag for French Southern Territories Past Weather in Amsterdam Island, French Southern Territories — Yesterday and Last 2 Weeks

Now
56 °F

Cool.


Feels Like: 50 °F
Forecast: 53 / 57 °F
Wind: 28 mph from Northwest

Location: Martin De Vivies Ile Amsterdam

Current Time: Jul 25, 2016 at 9:00:41 PM

Latest Report: Jul 25, 2016 at 8:00 PM


Visibility: N/A

Pressure: 30.32 "Hg

Humidity: 88%

Dew Point: 52 °F

Location of Amsterdam IslandLocation

Past Weather in Amsterdam Island — Graph

°F

Amsterdam Island Temperature Yesterday

Maximum temperature yesterday: 55 °F (at 11:00 AM)
Minimum temperature yesterday: 47 °F (at 1:00 AM)
Average temperature yesterday: 52 °F

High & Low Weather Summary for the Past Weeks

 TemperatureHumidityPressure
High59 °F (Jul 11, 9:00 AM)93% (Jul 11, 2:00 AM)30.83 "Hg (Jul 11, 2:00 AM)
Low42 °F (Jul 14, 4:00 PM)52% (Jul 14, 12:00 PM)29.15 "Hg (Jul 12, 2:00 AM)
Average52 °F75%30.35 "Hg
* Reported Jul 10 8:00 PM — Jul 25 8:00 PM, Amsterdam Island, Weather by CustomWeather, © 2016

Note: Actual official high and low records may vary slightly from our data, if they occured in-between our weather recording intervals... More about our weather records

Advertising

Amsterdam Island Weather History for the Previous 24 Hours

Scroll right to see more
 ConditionsComfort  
Time TempWeatherWind HumidityBarometerVisibility
8:00 PM
Mon, Jul 25
56 °FCool.28 mph88%30.32 "HgN/A
7:00 PM56 °FCool.23 mph86%30.34 "HgN/A
6:00 PM56 °FCool.26 mph84%30.35 "HgN/A
5:00 PM56 °FCool.23 mph87%30.36 "HgN/A
4:00 PM56 °FCool.24 mph85%30.37 "HgN/A
3:00 PM56 °FCool.23 mph85%30.39 "HgN/A
2:00 PM58 °FCool.24 mph80%30.40 "HgN/A
1:00 PM57 °FCool.23 mph82%30.42 "HgN/A
12:00 PM58 °FCool.22 mph81%30.45 "HgN/A
11:00 AM58 °FCool.24 mph80%30.47 "HgN/A
10:00 AM56 °FCool.23 mph84%30.50 "HgN/A
9:00 AM56 °FCool.25 mph84%30.50 "HgN/A
8:00 AM53 °FCool.25 mph88%30.51 "HgN/A
7:00 AM54 °FCool.23 mph89%30.52 "HgN/A
6:00 AM54 °FCool.23 mph89%30.52 "HgN/A
5:00 AM54 °FCool.22 mph89%30.52 "HgN/A
4:00 AM53 °FCool.21 mph89%30.52 "HgN/A
3:00 AM53 °FCool.22 mph88%30.54 "HgN/A
2:00 AM54 °FCool.24 mph87%30.56 "HgN/A
1:00 AM54 °FCool.22 mph83%30.57 "HgN/A
12:00 AM54 °FCool.22 mph89%30.58 "HgN/A
11:00 PM
Sun, Jul 24
53 °FCool.20 mph90%30.59 "HgN/A
10:00 PM53 °FCool.17 mph87%30.60 "HgN/A
9:00 PM53 °FCool.20 mph82%30.62 "HgN/A
Weather by CustomWeather, © 2016

See weather overviewHow to use our weather pages